This demonstration page uses our WeatherBlox Daily Observations layout. Learn more.

39.01783, -85.05884

Hourly Observations for June 3, 2019

Temp ( °F °C ) Dew Point ( °F °C ) Humidity (%) Winds ( mph kmh ) Pressure ( in mb ) Visibility ( mi km ) Precip ( " mm )
12:52 am 00:52 Clear 60 15.6 36 2.2 41 41 N 12 19 29.97 1015 10 16.09344 0 0
1:52 am 01:52 Clear 59 15 36 2.2 42 42 N 7 11 29.97 1015 10 16.09344 0 0
2:52 am 02:52 Clear 58 14.4 36 2.2 44 44 N 5 7 29.97 1015 10 16.09344 0 0
3:52 am 03:52 Clear 55 12.8 38 3.3 53 53 Calm 29.97 1015 10 16.09344 0 0
5:52 am 05:52 Mostly Clear 51 10.6 41 5 69 69 WNW 3 6 30.03 1017 10 16.09344 0 0
6:52 am 06:52 Mostly Sunny 54 12.2 39 3.9 57 57 Calm 30.03 1017 10 16.09344 0 0
7:52 am 07:52 Mostly Sunny 55 12.8 44 6.7 67 67 N 5 7 30.06 1018 10 16.09344 0 0
8:52 am 08:52 Sunny 61 16.1 41 5 48 48 Calm 30.09 1019 10 16.09344 0 0
9:52 am 09:52 Mostly Sunny 64 17.8 39 3.9 40 40 Calm 30.12 1020 10 16.09344 0 0
10:52 am 10:52 Partly Cloudy 66 18.9 40 4.4 39 39 S 6 9 30.12 1020 10 16.09344 0 0
11:52 am 11:52 Partly Cloudy 68 20 40 4.4 36 36 Calm 30.12 1020 10 16.09344 0 0
12:52 pm 12:52 Partly Cloudy 70 21.1 41 5 35 35 Calm 30.12 1020 10 16.09344 0 0
1:52 pm 13:52 Mostly Sunny 72 22.2 43 6.1 35 35 N 9 15 30.09 1019 10 16.09344 0 0
2:52 pm 14:52 Mostly Sunny 73 22.8 44 6.7 35 35 VRB 3 6 30.09 1019 10 16.09344 0 0
3:52 pm 15:52 Mostly Sunny 74 23.3 45 7.2 36 36 NNW 8 13 30.09 1019 10 16.09344 0 0
4:52 pm 16:52 Mostly Sunny 74 23.3 45 7.2 36 36 VRB 6 9 30.09 1019 10 16.09344 0 0
5:52 pm 17:52 Partly Cloudy 74 23.3 47 8.3 38 38 SW 5 7 30.09 1019 10 16.09344 0 0
6:52 pm 18:52 Partly Cloudy 74 23.3 47 8.3 38 38 WSW 5 7 30.06 1018 10 16.09344 0 0
7:52 pm 19:52 Mostly Cloudy 72 22.2 48 8.9 43 43 WSW 3 6 30.06 1018 10 16.09344 0 0
8:52 pm 20:52 Mostly Cloudy 66 18.9 50 10 56 56 SSW 3 6 30.06 1018 10 16.09344 0 0
9:52 pm 21:52 Mostly Cloudy 64 17.8 50 10 60 60 SSW 5 7 30.09 1019 10 16.09344 0 0
10:52 pm 22:52 Mostly Cloudy 62 16.7 50 10 65 65 SSW 6 9 30.09 1019 10 16.09344 0 0
11:52 pm 23:52 Cloudy 62 16.7 49 9.4 62 62 SSW 6 9 30.09 1019 10 16.09344 0 0

Powered by AerisWeather